RH
27 27 28 32 33 31 27 28 32 37 42 46 51 50 44 43 45 46 47 46 48 48
29 29 28 28 30 29 27 26 31 39 43 44 49 50 48 46 48 46 47 47 46 46
37 35 31 31 31 30 27 27 29 38 41 43 47 50 50 47 47 47 46 48 47 46
35 36 35 32 32 29 30 28 30 36 40 41 46 49 49 47 48 48 44 46 49 51
36 37 36 31 29 27 31 29 31 35 40 41 43 47 48 49 51 54 56 56 56 55
36 36 37 33 28 25 29 29 29 33 38 38 41 46 47 49 48 53 55 61 67 66
34 32 34 34 27 24 27 28 30 33 37 38 43 46 46 46 49 55 60 64 70 71
33 35 35 35 31 21 24 25 26 32 36 38 39 42 46 47 49 56 58 62 68 72
36 38 38 35 35 27 22 27 27 32 34 36 37 42 47 48 47 52 58 64 68 71
38 37 37 38 36 32 22 24 25 30 33 35 40 44 46 47 44 47 54 63 67 73
38 38 39 41 38 33 31 23 23 27 31 35 38 41 43 42 41 45 54 61 68 70
36 38 40 42 37 33 35 31 24 25 29 32 34 35 38 40 41 46 52 63 66 67
39 42 39 40 40 38 38 37 33 29 29 31 31 32 34 40 43 47 52 56 64 62
44 45 45 48 49 49 47 43 41 34 31 36 37 33 33 39 48 52 51 56 60 62